Location: Usti nad Labem
(50.6670°N, 14.0330°E)
Time: 22:06:00
(UTC+01:00)

Envisat - Pass Details

Date: 02 December 2020
Orbit: 764 x 766 km, 98.1° (Epoch: 15 January)

Event Time Altitude Azimuth Distance (km) Brightness Sun altitude
Rises 18:40:06 0° 221° (SW) 3,224 6.9 -24.2°
Reaches altitude 10° 18:43:49 10° 249° (WSW) 2,305 6.4 -24.8°
Maximum altitude 18:46:02 13° 275° (W) 2,120 6.2 -25.1°
Drops below altitude 10° 18:48:16 10° 302° (WNW) 2,313 6.2 -25.5°
Sets 18:52:02 0° 330° (NNW) 3,246 6.6 -26.0°
